Wind_Speed
8 1 9 11 6 9 5 4 7 1 10 7 13 3 7 20 18 20 25 34 37 35 32 32 35 35 33 29 28 25 20 17 14 16 20 18 13 11 8 9 9 7 14 10
6 7 12 7 7 11 7 3 9 6 15 5 4 5 4 11 18 27 31 30 38 36 31 35 36 35 34 32 30 24 20 19 16 12 13 17 16 13 11 11 10 11 10 8
6 12 7 8 13 7 4 4 4 6 15 1 7 7 3 6 8 21 26 35 38 37 37 39 39 38 36 35 31 24 22 21 18 13 13 20 18 12 11 15 8 7 12 8
7 14 7 9 7 4 4 2 1 2 4 3 4 4 4 5 13 13 23 29 37 29 42 42 42 41 39 37 31 26 21 22 20 16 18 25 21 12 12 13 11 10 9 7
10 6 7 6 7 4 7 3 1 2 2 2 2 3 6 5 9 14 22 30 39 35 40 43 45 42 41 39 34 28 21 23 22 20 20 24 20 16 11 8 7 5 8 6
10 16 4 6 6 3 2 6 8 6 3 3 5 4 5 6 16 11 21 32 42 44 40 44 45 42 43 42 36 31 25 25 24 22 21 21 20 19 19 12 11 7 9 6
8 10 8 4 6 7 9 7 4 4 5 5 4 2 8 8 10 15 23 33 44 50 41 45 45 44 46 45 40 35 30 28 28 25 22 21 19 20 19 17 11 11 8 6
2 9 2 2 9 10 4 8 5 5 3 6 3 4 5 8 14 27 32 39 41 46 44 44 49 48 45 46 42 38 35 30 31 29 24 22 22 21 20 20 16 11 10 6
5 7 5 5 8 11 4 2 8 4 1 1 4 4 4 14 17 8 20 29 37 43 43 44 48 46 45 43 44 41 38 32 29 27 26 24 24 25 24 22 22 17 11 11
4 5 3 6 6 4 8 4 3 4 1 3 5 3 2 7 7 10 7 24 35 44 48 47 48 48 44 41 38 40 39 34 29 28 27 27 26 25 25 25 23 21 18 16
3 3 11 3 4 2 6 3 6 5 5 5 2 5 6 13 5 14 13 27 35 43 47 48 47 48 45 43 40 38 40 38 34 30 28 29 26 26 25 25 25 22 20 19
5 6 2 5 4 2 3 4 5 5 5 2 4 5 14 13 13 12 21 25 37 46 46 47 42 46 45 44 42 40 39 39 35 30 30 29 27 25 27 26 25 26 24 15
3 3 4 10 9 9 7 7 4 2 4 6 5 5 4 3 20 36 16 22 28 38 39 42 41 40 42 43 44 42 39 37 36 34 32 31 29 26 26 27 26 25 23 20
7 3 6 5 6 5 8 14 12 2 4 1 5 5 5 6 7 13 17 17 16 24 28 36 42 42 40 38 38 40 39 37 35 36 35 33 31 27 23 22 26 26 27 25
5 1 2 1 3 4 6 11 11 11 5 5 5 9 11 11 9 12 15 14 14 14 11 22 36 39 35 40 38 38 34 33 33 36 36 34 32 30 26 23 23 25 26 30
6 3 2 5 6 6 6 14 7 10 13 3 4 2 3 9 27 24 23 23 20 18 17 15 8 21 32 28 37 38 37 33 35 36 35 34 34 32 30 27 23 24 26 30
1 2 3 5 3 4 5 5 8 9 16 6 7 8 15 5 10 17 23 22 19 17 16 13 12 3 13 27 27 32 33 32 36 37 36 36 35 34 32 27 24 25 25 26
4 3 2 3 5 2 4 2 12 18 15 14 11 15 18 4 21 31 23 16 15 14 13 12 8 6 6 18 25 28 29 30 34 37 37 37 36 35 31 27 25 24 23 27
3 5 3 3 1 3 3 4 4 2 5 10 8 13 23 13 21 23 28 21 12 9 9 10 7 6 3 4 7 18 22 23 28 29 31 31 32 31 29 28 27 25 25 28
7 7 4 2 2 3 4 7 13 3 1 7 8 12 14 20 7 5 32 22 23 19 8 9 11 8 7 5 4 6 17 21 26 22 19 18 21 25 27 28 26 25 28 29
4 4 4 2 3 4 4 12 14 5 3 9 3 2 17 3 3 17 23 21 20 16 11 9 12 11 9 7 6 4 3 9 12 11 11 14 16 18 22 23 24 27 27 27
2 2 1 1 1 5 5 5 4 4 5 5 6 9 1 11 9 10 19 23 22 21 17 13 13 16 13 6 4 2 4 8 9 7 8 10 12 15 18 20 20 24 23 20
1 4 3 5 5 3 9 5 5 5 3 2 4 3 4 4 5 14 7 17 18 19 27 26 18 14 13 9 5 4 4 7 8 11 12 10 12 14 17 18 18 19 20 16
1 3 2 3 3 4 6 7 11 9 11 9 7 8 2 7 13 17 11 14 10 6 20 23 11 9 8 8 6 2 1 2 3 5 9 11 12 13 13 13 13 15 15 14
3 6 3 5 10 9 8 8 12 8 5 8 11 1 10 15 16 15 16 11 13 12 16 13 7 6 6 9 10 4 0 3 4 6 7 6 6 7 8 9 10 12 11 11
9 7 4 5 5 5 5 7 12 1 2 9 4 14 16 21 21 21 13 9 10 6 8 12 6 5 3 9 11 11 0 3 5 7 5 4 5 5 5 4 6 10 12 9
Wind_Direction
267 36 239 258 236 243 248 207 208 218 176 163 223 164 185 162 170 183 197 192 199 201 203 192 187 192 192 196 194 195 196 187 183 167 170 174 172 177 190 223 249 264 257 274
1 266 260 244 256 266 261 153 277 238 163 158 228 258 150 166 191 188 194 200 199 201 197 189 188 189 193 196 196 202 200 194 193 182 176 178 173 193 211 228 248 241 246 259
186 247 302 296 301 291 221 204 250 153 175 296 141 311 272 203 193 198 201 203 201 203 196 187 190 191 195 194 199 205 206 204 198 187 179 183 195 208 229 238 272 199 233 234
248 271 255 287 258 191 350 171 270 41 120 185 181 260 247 226 213 200 199 204 201 200 191 188 190 193 198 200 201 206 212 210 200 193 182 179 190 205 208 216 228 209 219 219
247 290 317 307 261 352 265 342 39 81 156 105 307 90 269 178 235 212 199 201 202 202 194 191 195 199 203 200 202 204 210 206 199 196 193 192 197 210 214 195 201 194 178 191
241 277 219 234 307 254 266 41 28 35 62 54 227 137 281 196 219 188 192 192 196 203 201 199 199 200 204 202 202 202 204 200 198 197 198 202 201 210 222 236 200 204 196 201
321 285 287 214 312 336 68 57 359 344 3 219 220 62 234 258 211 181 190 190 194 199 200 197 199 201 202 202 203 203 203 200 198 198 203 206 202 210 219 232 229 214 226 234
231 321 180 202 200 191 185 137 152 230 229 267 60 232 263 236 248 198 186 189 189 194 200 201 200 203 206 206 207 207 204 202 202 204 210 215 215 213 219 228 230 234 253 286
179 264 276 215 245 137 233 183 192 159 154 83 252 323 23 27 15 151 169 177 186 190 197 202 199 204 208 210 210 211 209 206 204 207 210 216 218 219 217 221 231 236 239 253
225 304 210 297 42 3 150 167 49 10 44 5 334 329 245 20 14 354 151 174 186 189 197 200 202 205 209 211 213 213 214 212 210 211 215 217 219 220 224 221 224 228 230 242
95 79 294 24 32 280 336 331 63 119 136 160 213 261 211 123 171 266 262 172 182 190 196 200 202 202 210 213 216 216 217 218 217 219 223 222 224 225 223 225 224 227 230 236
229 152 354 216 261 289 250 251 148 131 249 200 162 270 188 177 199 244 272 184 182 192 197 200 201 203 208 215 218 221 221 222 226 228 228 228 228 229 226 224 224 225 228 236
343 20 25 347 358 351 25 340 270 102 93 181 141 260 197 156 149 257 211 190 183 192 200 204 202 202 207 214 218 223 226 230 232 230 230 231 230 230 229 227 226 224 221 224
2 99 140 181 223 241 8 3 348 46 71 198 213 127 122 203 137 105 116 167 179 179 188 198 203 204 207 210 215 220 226 230 232 231 232 231 230 233 232 229 226 225 219 219
60 87 62 170 242 68 74 17 21 43 279 135 248 158 194 166 142 117 111 114 103 107 127 191 205 207 212 214 218 220 223 227 230 231 233 235 234 234 235 230 225 222 224 224
352 322 105 336 348 54 67 33 25 21 337 331 105 67 310 154 119 107 101 94 88 81 81 73 172 201 217 217 220 224 227 231 233 234 236 239 239 237 236 231 227 228 223 222
144 53 29 302 326 39 35 355 52 67 14 352 14 342 335 340 94 85 95 91 82 71 60 64 73 150 209 218 224 224 230 233 234 237 239 241 244 242 236 233 227 228 227 226
265 97 89 215 16 54 215 331 99 92 38 27 33 5 353 16 75 59 56 49 78 76 67 56 69 100 144 213 223 227 232 231 234 238 241 242 243 242 237 230 228 232 229 230
146 112 62 112 185 275 64 8 18 41 26 15 38 26 14 1 77 39 43 39 25 60 31 17 1 16 22 270 245 240 240 243 240 239 240 240 241 241 236 231 227 231 228 224
42 69 103 76 111 194 230 301 314 255 48 12 24 58 29 38 54 290 355 18 20 17 14 10 19 4 328 336 295 249 238 241 230 233 238 242 243 240 238 234 229 232 226 229
1 5 133 169 193 279 281 308 312 126 242 320 251 172 80 107 89 351 343 351 356 355 360 349 346 353 349 340 353 21 125 199 216 229 244 253 249 240 234 231 230 232 219 202
129 77 340 55 178 261 344 351 95 178 304 40 206 240 269 156 130 356 353 315 323 340 322 332 312 324 324 314 312 278 195 190 204 222 235 225 229 231 232 227 227 225 231 221
25 167 194 170 228 288 310 246 198 171 314 195 139 80 344 198 196 204 252 314 288 270 292 291 275 306 315 306 313 269 229 219 217 212 215 216 218 227 222 230 227 225 229 227
88 151 182 31 274 196 260 257 202 221 216 223 169 172 88 161 209 191 172 212 216 167 273 232 236 283 306 337 341 336 315 234 256 203 208 214 207 210 215 223 237 245 247 233
196 135 203 259 279 282 268 242 207 192 209 183 153 83 275 245 254 222 210 240 241 248 219 211 239 286 322 348 354 360 298 145 129 146 165 187 205 205 220 214 216 225 242 254
182 180 169 225 256 195 261 225 196 180 93 188 338 316 292 279 277 279 278 300 288 291 219 211 236 287 304 307 322 351 162 157 180 165 163 179 197 214 206 225 256 253 246 241
Height
1494 1502 1506 1494 1493 1491 1493 1497 1496 1482 1486 1495 1497 1491 1491 1493 1499 1504 1507 1508 1510 1515 1519 1524 1527 1530 1534 1538 1540 1543 1546 1549 1552 1555 1557 1560 1563 1563 1564 1564 1564 1564 1565 1565
1500 1507 1488 1486 1486 1487 1488 1492 1488 1479 1486 1495 1497 1492 1489 1489 1491 1493 1498 1503 1505 1510 1515 1521 1525 1528 1531 1534 1538 1541 1544 1547 1550 1554 1556 1560 1561 1561 1560 1559 1560 1562 1563 1564
1506 1489 1480 1484 1481 1486 1486 1490 1482 1483 1488 1494 1498 1499 1494 1485 1486 1491 1494 1499 1502 1505 1510 1517 1521 1524 1528 1532 1535 1538 1541 1544 1548 1552 1554 1557 1558 1558 1558 1557 1558 1558 1560 1560
1496 1479 1484 1485 1486 1481 1488 1473 1472 1473 1490 1508 1486 1522 1498 1485 1482 1484 1490 1496 1499 1503 1507 1512 1517 1521 1524 1528 1532 1537 1540 1543 1546 1550 1552 1553 1554 1555 1555 1556 1557 1557 1558 1559
1493 1482 1485 1487 1479 1470 1480 1468 1472 1474 1485 1489 1491 1509 1496 1485 1486 1482 1484 1491 1496 1499 1504 1508 1511 1515 1519 1525 1529 1534 1538 1541 1544 1547 1549 1551 1552 1553 1554 1555 1557 1556 1557 1557
1485 1475 1478 1476 1470 1469 1466 1473 1482 1485 1502 1523 1498 1500 1499 1489 1473 1475 1477 1482 1491 1491 1497 1505 1508 1513 1516 1521 1525 1530 1535 1537 1540 1543 1546 1548 1549 1550 1552 1553 1555 1555 1555 1556
1489 1480 1469 1471 1476 1470 1474 1499 1535 1528 1538 1526 1500 1503 1486 1460 1457 1462 1469 1477 1481 1487 1495 1500 1505 1508 1512 1516 1521 1526 1531 1533 1537 1540 1543 1545 1548 1548 1549 1552 1554 1554 1555 1555
1507 1509 1471 1462 1469 1479 1478 1494 1533 1536 1543 1522 1498 1508 1479 1452 1450 1454 1461 1467 1476 1485 1490 1495 1498 1502 1506 1511 1516 1521 1525 1529 1533 1537 1539 1542 1545 1546 1548 1549 1552 1554 1554 1557
1508 1497 1464 1463 1456 1461 1478 1492 1482 1502 1515 1519 1504 1477 1461 1458 1459 1454 1462 1468 1474 1480 1486 1491 1495 1499 1503 1507 1511 1515 1520 1525 1529 1532 1535 1538 1541 1543 1543 1547 1549 1552 1556 1558
1477 1498 1468 1459 1454 1458 1466 1467 1497 1511 1524 1522 1508 1496 1496 1476 1468 1467 1467 1466 1470 1475 1481 1485 1490 1494 1498 1502 1506 1511 1516 1519 1523 1528 1531 1533 1535 1538 1542 1545 1548 1551 1554 1555
1472 1485 1478 1466 1473 1478 1477 1481 1487 1497 1513 1530 1530 1509 1481 1473 1472 1464 1466 1463 1467 1472 1477 1481 1485 1490 1494 1498 1502 1506 1512 1516 1520 1523 1526 1529 1532 1535 1539 1542 1545 1548 1549 1551
1468 1486 1494 1480 1466 1466 1465 1472 1483 1511 1508 1511 1511 1504 1462 1461 1461 1464 1467 1463 1465 1468 1473 1478 1482 1488 1492 1495 1499 1502 1506 1510 1513 1517 1521 1524 1528 1531 1533 1537 1541 1543 1546 1553
1464 1491 1512 1498 1481 1466 1476 1474 1474 1481 1491 1504 1510 1500 1463 1471 1479 1464 1469 1464 1466 1468 1473 1476 1481 1484 1488 1491 1495 1498 1501 1504 1508 1512 1516 1519 1522 1525 1528 1532 1536 1539 1544 1545
1466 1488 1500 1519 1502 1489 1491 1482 1480 1479 1503 1501 1493 1479 1469 1467 1464 1460 1462 1463 1466 1468 1471 1474 1479 1482 1484 1487 1490 1493 1496 1499 1502 1506 1510 1513 1516 1519 1523 1527 1531 1533 1536 1539
1478 1491 1488 1488 1484 1481 1492 1489 1486 1490 1485 1490 1478 1473 1468 1459 1457 1458 1461 1464 1468 1470 1472 1475 1476 1479 1482 1486 1488 1490 1493 1495 1498 1501 1504 1506 1510 1514 1518 1523 1527 1529 1531 1532
1483 1495 1490 1497 1484 1482 1494 1489 1488 1486 1481 1471 1467 1466 1458 1454 1453 1458 1463 1465 1468 1471 1474 1475 1475 1478 1480 1482 1484 1486 1488 1491 1493 1495 1497 1501 1504 1508 1512 1518 1521 1523 1525 1526
1488 1493 1500 1505 1490 1486 1503 1498 1494 1496 1494 1486 1494 1495 1476 1463 1457 1463 1466 1469 1473 1475 1476 1475 1475 1475 1476 1479 1481 1482 1484 1487 1488 1490 1493 1495 1498 1502 1507 1512 1515 1516 1520 1524
1484 1492 1503 1508 1500 1518 1497 1489 1489 1499 1501 1495 1495 1492 1484 1474 1471 1467 1471 1475 1477 1478 1479 1479 1478 1475 1474 1476 1477 1479 1481 1482 1484 1485 1487 1490 1493 1496 1502 1507 1509 1511 1515 1516
1476 1492 1508 1515 1518 1505 1494 1495 1496 1496 1505 1500 1500 1491 1483 1473 1467 1471 1473 1480 1482 1483 1482 1483 1481 1479 1477 1476 1475 1475 1477 1479 1480 1482 1484 1487 1490 1493 1497 1500 1503 1505 1508 1512
1482 1487 1500 1511 1513 1518 1500 1494 1491 1489 1508 1499 1493 1491 1491 1478 1490 1490 1481 1483 1483 1485 1486 1485 1481 1480 1479 1476 1474 1473 1473 1473 1476 1479 1482 1485 1487 1489 1493 1495 1499 1501 1504 1505
1506 1504 1511 1511 1513 1505 1492 1490 1488 1502 1512 1496 1493 1494 1493 1498 1498 1494 1491 1486 1486 1488 1486 1487 1487 1484 1481 1480 1477 1474 1474 1476 1478 1480 1483 1485 1486 1487 1490 1493 1496 1498 1498 1501
1509 1512 1515 1512 1509 1513 1491 1488 1493 1497 1494 1491 1492 1491 1497 1495 1488 1493 1494 1494 1487 1488 1486 1487 1488 1488 1485 1483 1482 1477 1476 1476 1477 1479 1480 1482 1486 1488 1490 1492 1494 1495 1497 1496
1511 1507 1512 1510 1508 1496 1493 1493 1492 1491 1492 1491 1493 1492 1491 1494 1492 1481 1496 1502 1493 1491 1488 1492 1498 1491 1488 1486 1481 1478 1477 1477 1477 1477 1478 1480 1483 1485 1487 1490 1492 1494 1496 1498
1501 1503 1506 1505 1495 1493 1489 1489 1491 1490 1487 1489 1492 1490 1492 1492 1493 1493 1489 1495 1491 1481 1486 1479 1489 1488 1487 1485 1480 1477 1476 1476 1476 1476 1478 1480 1482 1483 1485 1486 1490 1492 1493 1494
1502 1503 1503 1502 1492 1491 1488 1487 1487 1485 1483 1486 1486 1485 1487 1491 1490 1490 1489 1487 1484 1483 1484 1485 1484 1485 1485 1484 1482 1478 1479 1477 1478 1478 1479 1481 1483 1484 1485 1486 1486 1489 1490 1492
1495 1497 1502 1501 1490 1491 1488 1488 1486 1484 1483 1484 1481 1478 1480 1483 1483 1484 1482 1482 1482 1481 1481 1483 1485 1487 1485 1484 1482 1481 1480 1478 1478 1480 1480 1483 1485 1487 1486 1484 1485 1485 1486 1488